Terminal Aerodrome Forecast
Issued by NWS Milwaukee/Sullivan, WI

Home | Current Version | Previous Version | Text Only | Print | Product List | Glossary On
Versions: 1 2 3 4 5 6 7 8 9 10 11 12 13 14 15 16 17 18 19 20 21 22 23 24 25 26 27 28 29 30 31 32 33 34 35 36 37 38 39 40 41 42 43 44 45 46 47 48 49 50
000
FTUS43 KMKX 291314 AAA
TAFMKE
TAF AMD
KMKE 291314Z 2913/3018 17009KT P6SM VCTS SCT060 BKN080CB
      TEMPO 2913/2915 4SM -TSRA SCT003 OVC025CB
     FM291600 18009KT P6SM SCT025 BKN130
     FM292300 19010G17KT P6SM VCTS SCT040CB BKN100
     FM300200 18008KT 4SM -TSRA BR BKN035CB OVC060
     FM300800 20005KT 6SM -SHRA BR OVC035
     FM301000 VRB03KT 4SM BR OVC025
     FM301500 24008KT P6SM SCT025 OVC050=

USA.gov is the U.S. government's official web portal to all federal, state and local government web resources and services.